Regional Weather Roundup
Issued by NWS

Home | Current Version | Previous Version | Text Only | Print | Product List | Glossary Off
Versions: 1 2 3 4 5 6 7 8 9 10 11 12 13 14 15 16 17 18 19 20 21 22 23 24 25 26 27 28 29 30 31 32 33 34 35 36 37 38 39 40 41 42 43 44 45 46 47 48 49 50

000
ASUS43 KMKX 221911
RWRWI

WISCONSIN REGIONAL WEATHER ROUNDUP
NATIONAL WEATHER SERVICE MILWAUKEE/SULLIVAN WI
200 PM CDT MON SEP 22 2014

NOTE: "FAIR" INDICATES FEW OR NO CLOUDS BELOW 12,000 FEET WITH NO
SIGNIFICANT WEATHER AND/OR OBSTRUCTIONS TO VISIBILITY.

WIZ001-002-006>008-014>016-023>028-222000-
NORTHWEST WISCONSIN

CITY           SKY/WX    TMP DP  RH WIND       PRES   REMARKS
SUPERIOR ARPT  SUNNY     71  53  51 W10       30.13F
ASHLAND        MOSUNNY   69  51  52 SW10G17   30.15F
HAYWARD        SUNNY     66  48  52 W6        30.19F
SIREN          MOSUNNY   68  50  52 W12       30.20F
RICE LAKE      MOSUNNY   66  50  56 W7        30.23S
LADYSMITH      SUNNY     66  51  58 W6        30.22F
EAU CLAIRE     MOSUNNY   68  51  54 W6        30.22F
MENOMONIE      PTCLDY    67  50  52 NW7       30.23F
NEW RICHMOND   SUNNY     68  49  49 W9        30.22F
OSCEOLA        MOSUNNY   69  52  54 SW10G17   30.24F
$$

WIZ003>005-009-010-017-018-222000-
NORTH CENTRAL WISCONSIN

CITY           SKY/WX    TMP DP  RH WIND       PRES   REMARKS
WOODRUFF       MOSUNNY   63  49  59 W12       30.17F
RHINELANDER    MOSUNNY   63  47  55 W13G18    30.19F
EAGLE RIVER    MOSUNNY   63  45  51 W14       30.16F
LAND O LAKES   MOSUNNY   65  47  51 W7        30.16F
PHILLIPS       MOSUNNY   62  49  63 SW8       30.19F
TOMAHAWK       MOSUNNY   63  48  58 SW6       30.20F
MEDFORD        PTSUNNY   61  49  63 W7        30.21F
MERRILL        MOSUNNY   64  49  59 W12       30.19F
$$

WIZ029-030-035-036-043>047-222000-
CENTRAL WISCONSIN

CITY           SKY/WX    TMP DP  RH WIND       PRES   REMARKS
WAUSAU         PTSUNNY   63  47  55 W9G18     30.20F
MOSINEE        PTSUNNY   63  48  59 W12       30.23F
MARSHFIELD     MOSUNNY   66  50  56 W8        30.21F
STEVENS POINT  CLOUDY    63  47  55 W8        30.22F
WAUPACA        MOSUNNY   68  47  46 W9        30.21F
WAUTOMA        MOSUNNY   67  48  50 W9        30.23F
WISC RAPIDS    PTSUNNY   66  48  52 W9        30.23F
CAMP DOUGLAS   PTSUNNY   64  52  63 W8        30.24F
$$

WIZ011>013-019>022-031-037>040-048>050-222000-
NORTHEAST WISCONSIN

CITY           SKY/WX    TMP DP  RH WIND       PRES   REMARKS
ANTIGO         PTSUNNY   62  48  59 W10       30.19F
STURGEON BAY   MOSUNNY   64  45  48 W9        30.18F
GREEN BAY      MOSUNNY   68  47  46 W12G18    30.19F
MANITOWOC      MOSUNNY   65  45  48 VRB6G16   30.21F
APPLETON       PTSUNNY   64  45  48 W8        30.21F
CLINTONVILLE   PTSUNNY   68  45  42 W12G17    30.19F
OSHKOSH        PTSUNNY   67  47  48 NW9       30.21F
$$

WIZ032>034-041-042-053>061-222000-
SOUTHWEST WISCONSIN

CITY           SKY/WX    TMP DP  RH WIND       PRES   REMARKS
LA CROSSE      MOSUNNY   71  51  49 VRB6      30.23F
SPARTA         MOSUNNY   67  48  51 W10       30.25F
VIROQUA        MOCLDY    67  49  52 W6        30.25F
BOSCOBEL       SUNNY     69  48  47 W7        30.25F
PRAIRIE DU CHI SUNNY     69  47  45 SW10      30.25F
PLATTEVILLE    FAIR      67  46  46 W12       30.27F
$$

WIZ056-057-062-063-064-067-068-222000-
SOUTH CENTRAL WISCONSIN

CITY           SKY/WX    TMP DP  RH WIND       PRES   REMARKS
BARABOO/DELLS  MOSUNNY   67  46  46 W9        30.24F
LONE ROCK      SUNNY     70  49  47 W9        30.25F
WATERTOWN      SUNNY     66  46  47 W9        30.23F
MADISON        MOSUNNY   67  44  43 W10       30.25F
MIDDLETON      FAIR      68  45  43 W9G16     30.25F
MONROE         SUNNY     64  43  45 W5        30.26F
JANESVILLE     SUNNY     66  43  42 W12       30.25F
$$

WIZ051-052-058>065-066-070>072-222000-
SOUTHEAST WISCONSIN

CITY           SKY/WX    TMP DP  RH WIND       PRES   REMARKS
MILWAUKEE      MOSUNNY   65  43  44 VRB6G17   30.24F
WAUKESHA       MOSUNNY   64  45  48 W7        30.25F
MILWAUKEE/TIMM SUNNY     64  41  42 NW12      30.24F
RACINE         SUNNY     65  44  46 SW6       30.26F
BURLINGTON     SUNNY     64  42  44 W7        30.25F
KENOSHA        SUNNY     65  45  48 SW6       30.26F
FOND DU LAC    PTSUNNY   66  45  46 W10G16    30.23F
SHEBOYGAN      MOSUNNY   66  44  45 W10       30.22F
WEST BEND      MOSUNNY   64  43  45 W13       30.23F
JUNEAU         SUNNY     64  46  51 W6        30.24F
$$

LSZ147-162-222000-
LAKE SUPERIOR

STATION/POSITION TIME  TEMP    WIND        PRES    WAVE
                       AIR SEA DIR/SP/G            HT/PER
                 (UTC) (F)     (DEG/KT/KT) (MB)    (FT/S)
W MID LAKE BUOY  1850   52 46  220/ 14/ 14 1019.4F   2/ 4
DEVILS ISLAND    1900   58     230/ 13/ 16 1020.0F
PORT WING        1840   65     250/  9/ 14 1020.7F
SAXON HARBOR     1800   65     270/  6/ 11 1021.7F
$$

LMZ867-665-643>646-222000-
LAKE MICHIGAN

STATION/POSITION TIME  TEMP    WIND        PRES    WAVE
                       AIR SEA DIR/SP/G            HT/PER
                 (UTC) (F)     (DEG/KT/KT) (MB)    (FT/S)
N MID LAKE BUOY  1850   56 57  230/ 14/ 17 1021.1F   2/ 3
NORTHPORT PIER   1800   63     260/  7/ 11 1021.3F
KEWAUNEE LAKESHO 1800   64     280/  4/ 10 1021.8F
SHEBOYGAN LAKESH 1900   63 56  300/ 11/ 13 1023.6F
PORT WASHINGTON  1800   65     320/  7/ 12 1024.4F
ATWATER BUOY     1900   61     110/  8/ 10 1024.6F
MILWAUKEE LAKESH 1800   62     320/  4/ 10   N/A
S MID LAKE BUOY  1850   56 62  250/  8/ 10 1025.1F   2/ 7
KENOSHA   LAKESH 1900   59     140/  8/ 12 1024.0F
$$

TC  - TEMPERATURE IN CELSIUS
VSB - VISIBILITY IN STATUTE MILES
WCI - WIND CHILL INDEX
HX  - HEAT INDEX



USA.gov is the U.S. government's official web portal to all federal, state and local government web resources and services.